CW8033 Weather Reports


time (UTC)temp
F
wind
direction
speed
knots
gust
knots
rain 1hr
in
rain 24hr
in
rain mn
in
humidity
%
barometer
mb
20260507065108 48 243 2.6 5.2 0.00 0.01 0.01 85 1011.6
20260507064605 48 243 3.5 5.2 0.00 0.01 0.01 85 1011.5
20260507064214 47 280 3.5 7.0 0.00 0.01 0.01 85 1011.4
20260507064149 47 294 4.3 7.0 0.00 0.01 0.01 85 1011.6
20260507063102 48 269 1.7 5.2 0.00 0.01 0.01 86 1011.5
20260507062601 47 240 2.6 5.2 0.00 0.01 0.01 86 1011.4
20260507062409 47 234 2.6 6.1 0.00 0.01 0.01 86 1011.4
20260507061600 47 248 3.5 6.1 0.00 0.01 0.01 86 1011.3
20260507061102 47 294 2.6 6.1 0.00 0.01 0.01 86 1011.2
20260507060603 47 245 2.6 5.2 0.00 0.01 0.01 86 1011.2
20260507060416 47 250 2.6 5.2 0.00 0.01 0.01 87 1011.1
20260507055604 47 254 2.6 5.2 0.00 0.01 0.01 86 1011.0
20260507055404 47 278 1.7 5.2 0.00 0.01 0.01 87 1011.0
20260507054550 47 287 1.7 7.0 0.00 0.01 0.01 87 1011.0
20260507054041 47 278 2.6 7.0 0.00 0.01 0.01 87 1010.9
20260507053536 47 260 3.5 7.0 0.00 0.01 0.01 87 1010.9
20260507053035 47 270 3.5 7.0 0.00 0.01 0.01 87 1010.9
20260507052535 47 298 2.6 6.1 0.00 0.01 0.01 87 1010.8
20260507052035 47 291 1.7 5.2 0.00 0.01 0.01 87 1010.7
20260507051536 47 275 2.6 4.3 0.00 0.01 0.01 87 1010.7
20260507051036 47 242 2.6 5.2 0.00 0.01 0.01 87 1010.6
20260507050536 47 271 3.5 5.2 0.00 0.01 0.01 87 1010.6
20260507050037 47 229 1.7 5.2 0.00 0.01 0.01 87 1010.5
20260507045538 47 229 0.9 4.3 0.00 0.01 0.01 87 1010.4
20260507045034 47 237 0.9 3.5 0.00 0.01 0.01 88 1010.4
20260507044533 47 242 0.9 3.5 0.00 0.01 0.01 87 1010.3
20260507044036 47 242 1.7 3.5 0.00 0.01 0.01 87 1010.2
20260507043827 47 242 1.7 4.3 0.00 0.01 0.01 87 1010.2
20260507043032 47 237 0.9 4.3 0.00 0.01 0.01 87 1010.0
20260507042531 47 237 1.7 4.3 0.00 0.01 0.01 87 1010.0
20260507042030 47 239 1.7 4.3 0.00 0.01 0.01 87 1009.9
20260507041529 47 239 1.7 4.3 0.00 0.01 0.01 87 1009.8
20260507041030 47 258 1.7 4.3 0.00 0.01 0.01 87 1009.8
20260507040529 47 277 2.6 5.2 0.00 0.01 0.01 87 1009.8
20260507040018 47 266 3.5 7.0 0.00 0.01 0.01 87 1009.7
20260507035517 47 261 3.5 7.0 0.00 0.01 0.01 87 1009.8
20260507035326 47 276 2.6 5.2 0.00 0.01 0.01 87 1009.8
20260507034503 47 252 3.5 5.2 0.00 0.01 0.01 87 1009.8
20260507034003 47 287 3.5 6.1 0.00 0.01 0.01 87 1009.8
20260507033506 47 289 3.5 6.1 0.00 0.01 0.01 87 1009.7
20260507033004 47 258 3.5 5.2 0.01 0.01 0.01 87 1009.7
20260507032502 47 282 2.6 5.2 0.01 0.01 0.01 87 1009.7
20260507032003 47 278 2.6 5.2 0.01 0.01 0.01 87 1009.7
20260507031502 47 280 1.7 5.2 0.01 0.01 0.01 87 1009.6
20260507031001 47 273 2.6 4.3 0.01 0.01 0.01 87 1009.5
20260507030502 47 277 2.6 4.3 0.01 0.01 0.01 87 1009.5
20260507030001 47 275 1.7 5.2 0.01 0.01 0.01 87 1009.5
20260507025501 47 310 1.7 5.2 0.01 0.01 0.01 87 1009.5
20260507025001 47 277 2.6 5.2 0.01 0.01 0.01 87 1009.6
20260507024500 47 303 2.6 6.1 0.01 0.01 0.01 86 1009.5
20260507024001 47 287 2.6 6.1 0.01 0.01 0.01 86 1009.6
20260507023828 47 248 2.6 6.1 0.01 0.01 0.01 86 1009.6
20260507023001 47 283 2.6 6.1 0.00 0.00 0.00 86 1009.5
20260507022502 47 289 2.6 6.1 0.00 0.00 0.00 86 1009.4
20260507022300 48 239 2.6 6.1 0.00 0.00 0.00 85 1009.4
20260507021501 48 302 2.6 7.0 0.00 0.00 0.00 85 1009.4
20260507021001 48 247 3.5 7.0 0.00 0.00 0.00 85 1009.4
20260507020502 48 287 3.5 6.1 0.00 0.00 0.00 85 1009.3
20260507020002 48 293 4.3 7.0 0.00 0.00 0.00 84 1009.3
20260507015502 48 298 4.3 7.0 0.00 0.00 0.00 84 1009.2
20260507014958 48 289 3.5 7.0 0.00 0.00 0.00 84 1009.1
20260507014501 48 275 2.6 7.0 0.00 0.00 0.00 84 1009.1
20260507014000 48 269 4.3 7.0 0.00 0.00 0.00 84 1009.1
20260507013459 48 250 3.5 6.1 0.00 0.00 0.00 84 1009.0
20260507013002 48 259 3.5 7.8 0.00 0.00 0.00 84 1009.0
20260507012457 48 297 3.5 7.8 0.00 0.00 0.00 84 1009.0
20260507011957 48 274 2.6 5.2 0.00 0.00 0.00 84 1009.0
20260507011459 48 296 2.6 6.1 0.00 0.00 0.00 84 1008.9
20260507010954 48 290 3.5 6.1 0.00 0.00 0.00 84 1008.9
20260507010803 48 255 2.6 5.2 0.00 0.00 0.00 84 1008.8
20260507005955 48 285 2.6 5.2 0.00 0.00 0.00 84 1008.8
20260507005452 48 257 2.6 5.2 0.00 0.00 0.00 84 1008.8
20260507004947 48 279 1.7 5.2 0.00 0.00 0.00 84 1008.8
20260507004741 48 284 1.7 5.2 0.00 0.00 0.00 84 1008.7
20260507003942 48 294 1.7 6.1 0.00 0.00 0.00 84 1008.6
20260507003438 48 258 1.7 6.1 0.00 0.00 0.00 84 1008.7
20260507002939 48 274 1.7 4.3 0.00 0.00 0.00 85 1008.7
20260507002435 48 274 2.6 5.2 0.00 0.00 0.00 85 1008.6
20260507001937 48 292 2.6 6.1 0.00 0.00 0.00 85 1008.6
20260507001437 48 336 2.6 6.1 0.00 0.00 0.00 85 1008.6
20260507000934 48 300 2.6 6.1 0.00 0.00 0.00 85 1008.6
20260507000435 48 294 3.5 6.1 0.00 0.00 0.00 85 1008.5
20260506235934 48 309 3.5 7.0 0.00 0.00 0.00 85 1008.6
20260506235435 48 302 3.5 7.0 0.00 0.00 0.00 85 1008.5
20260506234935 48 313 3.5 7.0 0.00 0.00 0.00 85 1008.5
20260506234434 49 5 3.5 7.0 0.00 0.00 0.00 85 1008.5
20260506233934 48 316 3.5 7.0 0.00 0.00 0.00 85 1008.5
20260506233734 49 309 2.6 6.1 0.00 0.00 0.00 85 1008.6
20260506232933 49 257 2.6 7.0 0.00 0.00 0.00 85 1008.5
20260506232433 49 294 2.6 7.0 0.00 0.00 0.00 85 1008.5
20260506232234 49 254 2.6 6.1 0.00 0.00 0.00 85 1008.4
20260506231429 49 296 2.6 6.1 0.00 0.00 0.00 84 1008.4
20260506230929 49 286 3.5 7.0 0.00 0.00 0.00 84 1008.4
20260506230437 49 290 3.5 7.0 0.00 0.00 0.00 84 1008.3
20260506225930 49 264 2.6 5.2 0.00 0.00 0.00 84 1008.3
20260506225430 49 296 1.7 5.2 0.00 0.01 0.00 84 1008.3
20260506224930 49 259 2.6 7.0 0.00 0.01 0.00 84 1008.3
20260506224429 49 270 3.5 7.0 0.00 0.01 0.00 84 1008.2
20260506223930 49 264 2.6 7.0 0.00 0.01 0.00 84 1008.2
20260506223429 49 267 3.5 7.0 0.00 0.01 0.00 84 1008.1
20260506222929 49 319 4.3 7.0 0.00 0.01 0.00 84 1008.1
20260506222430 49 284 4.3 7.0 0.00 0.01 0.00 84 1008.1
20260506221931 49 259 5.2 7.8 0.00 0.01 0.00 84 1008.1
20260506221430 49 250 5.2 7.8 0.00 0.01 0.00 84 1008.0
20260506221235 49 267 5.2 7.8 0.00 0.01 0.00 84 1007.9
20260506220429 49 259 4.3 7.0 0.00 0.01 0.00 84 1007.9
20260506215931 49 279 3.5 6.1 0.00 0.01 0.01 84 1007.9
20260506215429 49 295 3.5 6.1 0.00 0.01 0.01 84 1007.9
20260506214931 49 260 2.6 4.3 0.00 0.01 0.01 84 1007.9
20260506214429 50 235 2.6 4.3 0.00 0.01 0.01 84 1007.8
20260506213930 50 231 2.6 4.3 0.00 0.01 0.01 84 1007.8
20260506213428 50 242 1.7 4.3 0.00 0.01 0.01 84 1007.7
20260506212929 50 248 1.7 4.3 0.00 0.01 0.01 83 1007.6
20260506212429 50 248 0.9 4.3 0.00 0.01 0.01 83 1007.6
20260506211929 50 248 1.7 4.3 0.00 0.01 0.01 83 1007.6
20260506211431 50 288 1.7 4.3 0.00 0.01 0.01 83 1007.5
20260506210930 50 290 1.7 4.3 0.00 0.01 0.01 83 1007.5
20260506210430 50 303 1.7 6.1 0.00 0.01 0.01 83 1007.4
20260506210239 50 329 1.7 6.1 0.00 0.01 0.01 83 1007.3
20260506205431 50 312 1.7 5.2 0.00 0.01 0.01 83 1007.4
20260506204929 50 248 1.7 4.3 0.00 0.01 0.01 83 1007.3
20260506204429 50 255 2.6 4.3 0.00 0.01 0.01 83 1007.3
20260506204229 50 241 2.6 6.1 0.00 0.01 0.01 83 1007.3
20260506203431 50 261 3.5 6.1 0.00 0.01 0.01 83 1007.2
20260506203235 50 255 2.6 7.8 0.00 0.01 0.01 82 1007.2
20260506202740 50 261 3.5 7.8 0.00 0.01 0.01 82 1007.3
20260506201929 50 244 3.5 7.0 0.00 0.01 0.01 82 1007.1
20260506201428 50 269 3.5 6.1 0.00 0.01 0.01 82 1007.1
20260506200930 51 244 3.5 6.1 0.00 0.01 0.01 82 1007.0
20260506200732 51 258 2.6 5.2 0.00 0.01 0.01 82 1006.9
20260506195930 51 273 2.6 6.1 0.00 0.01 0.01 82 1006.9
20260506195432 51 271 2.6 6.1 0.00 0.01 0.01 82 1006.8
20260506194931 51 248 2.6 6.1 0.00 0.01 0.01 82 1006.8
20260506194735 51 238 2.6 5.2 0.00 0.01 0.01 82 1006.8
20260506194224 51 288 2.6 5.2 0.00 0.01 0.01 83 1006.8
20260506193430 51 315 2.6 5.2 0.00 0.01 0.01 82 1006.8
20260506193230 51 225 2.6 5.2 0.00 0.01 0.01 82 1006.7
20260506192429 51 279 3.5 6.1 0.00 0.01 0.01 82 1006.6
20260506191929 51 273 2.6 6.1 0.00 0.01 0.01 82 1006.6
20260506191431 51 266 2.6 6.1 0.00 0.01 0.01 82 1006.5
20260506191247 51 264 3.5 6.1 0.00 0.02 0.01 82 1006.4
20260506190426 52 263 3.5 7.8 0.00 0.02 0.01 82 1006.4
20260506190114 52 289 3.5 7.0 0.00 0.02 0.01 82 1006.2
20260506190011 52 285 3.5 7.8 0.00 0.02 0.01 82 1006.2
20260506184904 52 279 2.6 7.0 0.00 0.02 0.01 82 1006.0
20260506184402 52 300 2.6 7.0 0.00 0.02 0.01 81 1005.9
20260506183901 52 256 3.5 7.0 0.00 0.02 0.01 81 1005.9
20260506183402 52 291 4.3 7.8 0.00 0.02 0.01 82 1005.9
20260506182903 52 340 4.3 7.8 0.00 0.02 0.01 82 1005.8
20260506182402 52 297 4.3 7.8 0.00 0.02 0.01 81 1005.7
20260506181910 53 294 3.5 7.8 0.00 0.02 0.01 81 1005.7
20260506181401 53 268 2.6 6.1 0.00 0.02 0.01 82 1005.6
20260506180903 53 271 3.5 7.8 0.00 0.02 0.01 81 1005.6
20260506180402 53 289 2.6 7.8 0.00 0.02 0.01 81 1005.4
20260506180203 53 275 2.6 5.2 0.00 0.02 0.01 82 1005.5
20260506175656 53 284 2.6 7.0 0.00 0.02 0.01 82 1005.4
20260506174903 53 302 3.5 8.7 0.00 0.03 0.01 81 1005.4
20260506174403 53 282 4.3 8.7 0.00 0.03 0.01 81 1005.4
20260506173902 53 255 4.3 9.6 0.00 0.03 0.01 81 1005.3
20260506173402 53 309 5.2 9.6 0.00 0.03 0.01 80 1005.3
20260506172902 53 339 4.3 7.8 0.00 0.03 0.01 80 1005.2
20260506172708 54 309 3.5 7.0 0.00 0.03 0.01 80 1005.2
20260506171901 54 329 5.2 11.3 0.00 0.03 0.01 80 1005.2
20260506171401 54 317 5.2 11.3 0.00 0.03 0.01 79 1005.1
20260506171034 54 299 4.3 9.6 0.00 0.03 0.01 80 1005.1
20260506171001 54 332 4.3 9.6 0.00 0.03 0.01 80 1005.0
20260506170323 55 299 2.6 7.8 0.00 0.03 0.01 80 1005.0
20260506165953 54 290 3.5 8.7 0.00 0.03 0.01 80 1004.9
20260506164901 55 319 2.6 7.8 0.00 0.03 0.01 80 1004.9
20260506164705 55 250 3.5 7.0 0.00 0.03 0.01 80 1004.9
20260506163902 54 238 4.3 7.0 0.00 0.03 0.01 80 1004.9
20260506163400 54 297 4.3 10.4 0.00 0.03 0.01 80 1004.9
20260506162902 55 324 5.2 11.3 0.00 0.03 0.01 79 1004.8
20260506162402 55 348 5.2 11.3 0.00 0.03 0.01 79 1004.8
20260506161902 55 305 3.5 7.8 0.00 0.03 0.01 80 1004.8
20260506161403 55 289 4.3 10.4 0.00 0.03 0.01 79 1004.8
20260506161248 55 258 6.1 13.0 0.00 0.03 0.01 79 1004.7
20260506160751 55 280 6.1 13.0 0.00 0.03 0.01 79 1004.8
20260506155904 55 311 5.2 10.4 0.00 0.03 0.01 79 1004.7
20260506155402 56 296 4.3 10.4 0.00 0.03 0.01 79 1004.7
20260506154902 56 282 5.2 9.6 0.00 0.03 0.01 79 1004.6
20260506154707 56 346 7.0 13.0 0.00 0.03 0.01 78 1004.7
20260506153901 56 278 7.0 13.0 0.00 0.03 0.01 78 1004.7
20260506153403 56 323 6.1 11.3 0.00 0.03 0.01 79 1004.7
20260506153206 56 287 6.1 11.3 0.00 0.03 0.01 80 1004.7
20260506152402 56 274 7.0 11.3 0.00 0.03 0.01 79 1004.7
20260506151901 56 253 7.0 11.3 0.00 0.03 0.01 80 1004.7
20260506151400 55 244 7.0 11.3 0.00 0.03 0.01 80 1004.7
20260506150901 55 262 7.0 12.2 0.00 0.03 0.01 81 1004.6
20260506150401 56 291 6.1 12.2 0.00 0.03 0.01 81 1004.6
20260506150204 56 279 6.1 13.0 0.00 0.03 0.01 82 1004.6
20260506145707 56 262 6.1 13.0 0.00 0.03 0.01 82 1004.6
20260506145021 56 273 7.0 11.3 0.00 0.04 0.01 80 1004.5
20260506144952 56 276 6.1 11.3 0.00 0.03 0.01 81 1004.5
20260506143901 56 290 7.0 11.3 0.00 0.04 0.01 80 1004.4
20260506143404 56 256 6.1 11.3 0.00 0.04 0.01 82 1004.4
20260506142902 56 315 6.1 11.3 0.00 0.04 0.01 82 1004.4
20260506142356 56 265 6.1 11.3 0.00 0.04 0.01 83 1004.3
20260506142155 56 294 5.2 10.4 0.00 0.05 0.01 82 1004.2
20260506141344 56 251 5.2 9.6 0.00 0.05 0.01 83 1004.3
20260506140832 56 311 6.1 10.4 0.00 0.05 0.01 84 1004.3
20260506140331 55 239 5.2 10.4 0.00 0.05 0.01 84 1004.2
20260506135826 55 305 5.2 11.3 0.00 0.05 0.01 84 1004.2
20260506135319 55 276 5.2 11.3 0.00 0.05 0.01 84 1004.3
20260506134809 55 261 5.2 13.0 0.00 0.06 0.01 85 1004.2
20260506134304 55 263 6.1 13.0 0.00 0.06 0.01 84 1004.3
20260506133801 55 246 6.1 11.3 0.00 0.06 0.01 85 1004.3
20260506133301 56 243 6.1 13.9 0.00 0.06 0.01 84 1004.2
20260506132802 56 227 7.0 13.9 0.00 0.06 0.01 83 1004.2
20260506132305 56 294 7.0 13.9 0.00 0.06 0.01 81 1004.1
20260506131804 57 244 8.7 13.9 0.00 0.06 0.01 80 1004.1
20260506131302 57 252 6.1 13.0 0.00 0.06 0.01 80 1004.1
20260506131121 57 208 4.3 11.3 0.00 0.06 0.01 81 1004.0
20260506130301 56 232 4.3 8.7 0.00 0.06 0.01 83 1004.0
20260506125801 56 250 5.2 12.2 0.00 0.06 0.01 82 1004.0
20260506125301 58 252 7.0 12.2 0.00 0.06 0.01 79 1004.1
20260506124802 58 205 7.0 16.5 0.00 0.06 0.01 78 1004.1
20260506124301 59 209 6.1 16.5 0.00 0.07 0.01 75 1004.0
20260506123801 58 230 8.7 15.6 0.00 0.07 0.01 76 1004.0
20260506123304 59 205 7.0 15.6 0.00 0.07 0.01 75 1004.0
20260506122800 59 193 5.2 11.3 0.00 0.07 0.01 76 1003.9
20260506122306 59 172 5.2 10.4 0.00 0.08 0.01 76 1004.0
20260506121803 58 199 6.1 13.9 0.00 0.08 0.01 78 1004.0
20260506121301 57 180 7.0 13.9 0.00 0.08 0.01 78 1004.0
20260506120801 57 185 7.0 11.3 0.00 0.09 0.01 77 1004.0
20260506120302 57 188 6.1 11.3 0.00 0.09 0.01 77 1004.1
20260506115802 58 184 6.1 9.6 0.00 0.09 0.01 76 1004.1
20260506115306 58 184 6.1 10.4 0.00 0.09 0.01 76 1004.0
20260506114802 58 184 6.1 10.4 0.00 0.09 0.01 75 1004.0
20260506114300 58 192 6.1 12.2 0.00 0.09 0.01 76 1004.0
20260506113801 58 194 6.1 12.2 0.00 0.09 0.01 77 1004.0
20260506113301 57 184 5.2 11.3 0.00 0.10 0.01 79 1004.0
20260506112801 58 215 6.1 11.3 0.00 0.10 0.01 77 1004.0
20260506112301 57 212 7.0 11.3 0.00 0.10 0.01 77 1004.1
20260506111801 58 215 7.8 13.9 0.00 0.10 0.01 76 1004.0
20260506111310 59 196 7.8 13.9 0.00 0.10 0.01 75 1004.0
20260506110800 59 216 6.1 13.0 0.00 0.10 0.01 77 1004.0
20260506110620 58 178 5.2 10.4 0.00 0.10 0.01 77 1004.0
20260506105802 58 177 6.1 11.3 0.00 0.10 0.01 79 1003.9
20260506105305 58 217 7.0 11.3 0.00 0.10 0.01 77 1004.0
20260506104801 58 218 7.8 13.0 0.00 0.10 0.01 78 1004.0
20260506104300 58 199 7.0 13.0 0.00 0.10 0.01 78 1003.9
20260506103802 58 213 6.1 11.3 0.00 0.10 0.01 79 1003.9
20260506103302 57 248 4.3 9.6 0.00 0.10 0.01 80 1003.8
20260506102802 57 254 5.2 9.6 0.00 0.10 0.01 79 1003.9
20260506102305 57 208 5.2 9.6 0.00 0.10 0.01 81 1004.0
20260506101801 56 196 6.1 12.2 0.00 0.10 0.01 83 1004.0
20260506101611 55 250 6.1 12.2 0.00 0.10 0.01 82 1003.9
20260506100802 56 198 6.1 10.4 0.00 0.10 0.01 82 1003.9
20260506100302 56 236 7.0 11.3 0.00 0.10 0.01 82 1003.9
20260506095802 56 216 6.1 11.3 0.00 0.10 0.01 82 1003.9
20260506095305 56 213 5.2 9.6 0.00 0.10 0.01 85 1003.9
20260506094801 55 217 5.2 8.7 0.00 0.10 0.01 86 1004.0
20260506094301 55 238 7.0 12.2 0.00 0.10 0.01 87 1004.0
20260506093804 55 190 6.1 12.2 0.00 0.10 0.01 85 1004.0
20260506093302 55 185 5.2 10.4 0.00 0.10 0.01 86 1003.9
20260506092751 54 193 5.2 10.4 0.00 0.10 0.01 86 1003.9
20260506092249 54 232 4.3 10.4 0.00 0.10 0.01 86 1004.0
20260506092051 54 206 3.5 8.7 0.00 0.10 0.01 87 1003.9
20260506091232 54 200 4.3 8.7 0.00 0.10 0.01 86 1003.9
20260506090731 54 196 5.2 11.3 0.00 0.10 0.01 86 1003.9
20260506090222 54 183 5.2 11.3 0.00 0.10 0.01 86 1003.9
20260506085718 53 209 5.2 10.4 0.00 0.10 0.01 87 1003.9
20260506085214 53 229 5.2 10.4 0.00 0.10 0.01 86 1003.9
20260506084704 53 213 5.2 10.4 0.00 0.10 0.01 86 1003.8
20260506084503 53 183 5.2 10.4 0.00 0.10 0.01 87 1003.7
20260506083701 53 205 5.2 8.7 0.00 0.10 0.01 87 1003.7
20260506083512 53 259 6.1 10.4 0.00 0.10 0.01 86 1003.7
20260506082701 53 219 6.1 11.3 0.00 0.10 0.01 86 1003.7
20260506082202 53 181 5.2 11.3 0.00 0.10 0.01 86 1003.7
20260506081701 53 195 5.2 11.3 0.00 0.10 0.01 86 1003.6
20260506081200 53 223 7.0 11.3 0.00 0.10 0.01 85 1003.6
20260506080701 53 194 6.1 11.3 0.00 0.10 0.01 85 1003.6
20260506080512 53 190 6.1 11.3 0.00 0.10 0.01 86 1003.5
20260506073201 53 207 5.2 9.6 0.00 0.10 0.01 86 1003.6
20260506072701 53 230 5.2 10.4 0.00 0.10 0.01 87 1003.5
20260506072204 53 180 4.3 10.4 0.00 0.10 0.01 87 1003.6
20260506071701 52 197 5.2 9.6 0.00 0.10 0.01 87 1003.6
20260506071510 52 171 5.2 9.6 0.00 0.10 0.01 87 1003.6
20260506071017 52 184 6.1 10.4 0.00 0.10 0.01 87 1003.6
20260506070202 53 230 6.1 11.3 0.00 0.10 0.01 87 1003.6